Regional Weather Roundup
Issued by NWS

Home | Current Version | Previous Version | Graphics & Text | Print | Product List | Glossary On
Versions: 1 2 3 4 5 6 7 8 9 10 11 12 13 14 15 16 17 18 19 20 21 22 23 24 25 26 27 28 29 30 31 32 33 34 35 36 37 38 39 40 41 42 43 44 45 46 47 48 49 50
000
ASUS43 KOAX 250210
RWRNE

WEATHER ROUNDUP FOR NEBRASKA
NATIONAL WEATHER SERVICE OMAHA NE
900 PM CDT THU APR 24 2014

NOTES: SATELLITE DATA IS BEING USED TO AUGMENT CLOUD COVER ABOVE
       12000 FEET.
       "FAIR" INDICATES FEW OR NO CLOUDS BELOW 12,000 FEET WITH NO
       SIGNIFICANT WEATHER AND/OR OBSTRUCTIONS TO VISIBILITY.

  * THESE STATIONS DO NOT REPORT WEATHER SUCH AS RAIN...SNOW OR FOG.

NEZ001>004-019>022-054>056-250300-
NEBRASKA PANHANDLE

CITY           SKY/WX    TMP DP  RH WIND       PRES   REMARKS
SCOTTSBLUFF    MOCLDY    60  23  24 NW3       29.81S
ALLIANCE       MOCLDY    51  26  37 S7        29.81R
CHADRON        CLOUDY    55  33  43 CALM      29.78R
KIMBALL        CLOUDY    55  20  24 SW8       29.87R
SIDNEY         CLOUDY    52  24  33 SW6       29.87R
$$

NEZ057>060-069>072-079>082-250300-
SOUTHWEST NEBRASKA

CITY           SKY/WX    TMP DP  RH WIND       PRES   REMARKS
NORTH PLATTE   PTCLDY    57  23  26 SW6       29.82R
IMPERIAL       MOCLDY    57  20  23 SE6       29.85R
LEXINGTON      CLEAR     56  23  27 SW5       29.83R
MCCOOK         CLEAR     63  14  15 S5        29.84S
OGALLALA       PTCLDY    55  24  30 CALM      29.84R
$$

NEZ005>010-023>029-035>040-094-250300-
NORTH CENTRAL NEBRASKA

CITY           SKY/WX    TMP DP  RH WIND       PRES   REMARKS
VALENTINE      PTCLDY    58  24  27 N7        29.79R
AINSWORTH      PTCLDY    55  24  30 N6        29.80R
BROKEN BOW     CLEAR     52  20  28 N5        29.81R
O`NEILL        CLEAR     55  19  23 N6        29.80R
ORD            CLEAR     54  25  32 CALM      29.79R
THEDFORD       PTCLDY    59  17  19 CALM      29.81R
$$

NEZ041-046>049-061>064-073>077-083>087-250300-
SOUTH CENTRAL NEBRASKA

CITY           SKY/WX    TMP DP  RH WIND       PRES   REMARKS
GRAND ISLAND   CLEAR     56  39  53 W3        29.81R
AURORA         CLEAR     61  39  44 CALM      29.80R
HASTINGS       CLEAR     54  40  59 CALM      29.82R
HEBRON         PTCLDY    54  35  48 SW3       29.82R
HOLDREGE       CLEAR     58  27  31 W5        29.83R
KEARNEY *      CLEAR     63  27  25 W5        29.83R
YORK           CLEAR     57  39  51 CALM      29.80R
$$

NEZ011>018-030>034-042>045-250300-
NORTHEAST NEBRASKA

CITY           SKY/WX    TMP DP  RH WIND       PRES   REMARKS
NORFOLK        CLEAR     56  32  40 W3        29.78R
ALBION         CLEAR     53  35  51 CALM      29.79R
BLAIR          MOCLDY    56  40  54 CALM      29.77R
COLUMBUS *     CLEAR     54  36  50 CALM      29.79R
FREMONT        PTCLDY    54  42  63 CALM      29.77R
TEKAMAH        MOCLDY    53  44  71 S5        29.76R
$$

NEZ050>053-065>068-078-088>093-250300-
SOUTHEAST NEBRASKA

CITY           SKY/WX    TMP DP  RH WIND       PRES   REMARKS
LINCOLN        CLEAR     57  38  48 S5        29.80R
OMAHA EPPLEY   MOCLDY    56  43  61 E6        29.78R
BEATRICE       CLEAR     58  39  49 CALM      29.80R
FALLS CITY     MOCLDY    57  48  72 S5        29.80R
NEBRASKA CITY  MOCLDY    56  46  69 S3        29.79S
PLATTSMOUTH    MOCLDY    56  41  57 S3        29.79R
$$

NEZ044-045-051>053-067-250300-
OMAHA AREA

CITY           SKY/WX    TMP DP  RH WIND       PRES   REMARKS
OMAHA EPPLEY   MOCLDY    56  43  61 E6        29.78R
BLAIR          MOCLDY    56  40  54 CALM      29.77R
FREMONT        PTCLDY    54  42  63 CALM      29.77R
MILLARD        MOCLDY    55  44  65 CALM      29.77R
OFFUTT AFB     MOCLDY    53  46  76 VRB5      29.78R
PLATTSMOUTH    MOCLDY    56  41  57 S3        29.79R
WAHOO          FAIR      55  40  55 CALM      29.78R
$$



USA.gov is the U.S. government's official web portal to all federal, state and local government web resources and services.